[[{"header":{"parameterUnit":"m.s-1","parameterCategory":1,"la1":30.2991,"la2":30.254,"lo1":-89.0895,"lo2":-89.0444,"dy":0.0017,"dx":0.0017,"nx":28,"ny":28,"refTime":"2023-07-28T09:00:00:Z","depth":0,"parameterNumber":2,"parameterNumberName":"U-component_of_WINDS"},"data":[0,0,0,0,0,0,0,0,0,0,0,0,0,0,0,0,0,0,0,0,0,0,0,0,0,0,0,0,0,0,0,0,0,0,0,0,0,0,0,0,0,0,0,0,0,0,0,0,0,0,0,0,0,0,0,0,0,0,3.3989,3.3989,0,3.4046,3.4047,3.4047,3.4026,3.4025,3.4023,3.4022,3.4075,3.4078,3.408,0,0,0,0,0,0,0,0,0,0,0,0,0,3.3853,3.3856,3.3988,3.3989,3.399,3.4046,3.4047,3.4048,3.4026,3.4025,3.4023,3.4021,3.4074,3.4077,3.4081,0,0,0,0,0,0,0,0,0,0,0,0,0,3.3911,3.3857,3.3988,3.3986,3.3987,3.4046,3.4047,3.4048,3.4026,3.4024,3.4023,3.4021,3.4073,3.4077,3.4081,3.4144,0,0,3.4093,3.4095,0,0,0,0,0,0,0,0,3.3908,3.3916,3.3986,3.3986,3.3987,3.4027,3.4019,3.408,3.4027,3.4011,3.4022,3.402,3.406,3.4065,3.408,3.4147,3.4149,3.4093,3.4096,3.4098,3.4099,0,0,0,0,0,0,0,3.3904,3.3914,3.4011,3.3987,3.3987,3.398,3.3986,3.403,3.4046,3.4012,3.4011,3.4018,3.406,3.4076,3.4081,3.415,3.4093,3.4097,3.4099,3.4101,3.4269,3.4271,0,0,0,0,0,0,3.3901,3.3911,3.4009,3.4013,3.3942,3.3984,3.3991,3.4016,3.4045,3.4048,3.402,3.4017,3.4071,3.4077,3.4083,3.4157,3.4098,3.4101,3.4103,3.4267,3.4269,3.4272,0,0,0,0,0,0,3.3898,3.391,3.4007,3.3961,3.3973,3.3989,3.4017,3.4018,3.4034,3.4051,3.4053,3.4034,3.4069,3.4077,3.4129,3.4159,3.4103,3.4107,3.4264,3.4268,3.4271,3.4307,0,0,0,0,0,0,3.3894,3.3909,3.3935,3.3962,3.3976,3.4054,3.4019,3.4021,3.4042,3.4039,3.4065,3.4067,3.4068,3.4123,3.4133,3.4163,3.411,3.4262,3.4266,3.427,3.4303,3.4311,3.4318,0,0,0,0,0,3.3889,3.3942,3.3936,3.3948,3.4009,3.4056,3.4063,3.4065,3.4044,3.4069,3.408,3.4066,3.4155,3.4129,3.414,3.4171,3.426,3.4265,3.4269,3.43,3.431,3.4318,0,0,0,0,0,0,3.3915,3.3945,3.3939,3.4003,3.4027,3.4052,3.4084,3.4076,3.4105,3.4101,3.41,3.4106,3.4159,3.4171,3.4142,3.4233,3.4204,3.4211,3.4223,3.4233,3.424,3.4235,3.4113,0,0,0,0,0,3.3929,3.3967,3.399,3.4044,3.4057,3.4068,3.4089,3.4088,3.4113,3.4122,3.4137,3.4159,3.4192,3.4213,3.4244,3.4306,3.4309,3.4333,3.434,3.4346,3.4351,3.4382,3.4392,3.4287,3.4287,3.4287,0,0,3.3956,3.3977,3.4001,3.4049,3.4068,3.4105,3.4077,3.4117,3.4144,3.4128,3.4178,3.4189,3.4214,3.427,3.4296,3.4281,3.4381,3.4352,3.4356,3.4358,3.4388,3.4398,3.4407,3.429,3.429,3.4289,0,0,3.4024,3.4046,3.4092,3.4111,3.4141,3.4148,3.4159,3.4186,3.4193,3.4244,3.4232,3.4263,3.432,3.4337,3.4354,3.4429,3.4416,3.4439,3.4476,3.4506,3.4514,3.4521,3.4546,3.4555,3.4445,3.4445,3.4445,0,3.4054,3.4111,3.4116,3.4157,3.4178,3.4167,3.4212,3.4231,3.4268,3.4281,3.4265,3.4336,3.4352,3.4411,3.4429,3.4444,3.4454,3.4435,3.4513,3.452,3.4527,3.455,3.456,3.4447,3.4447,3.4446,3.4446,0,3.4145,3.4185,3.4218,3.4256,3.4281,3.4324,3.4332,3.4356,3.4354,3.4362,3.4412,3.4432,3.4466,3.448,3.4478,3.4539,3.4528,3.4513,3.4483,3.4539,3.4561,3.457,3.445,3.445,3.4449,3.4448,0,0,3.423,3.427,3.4282,3.4299,3.4331,3.436,3.4402,3.4437,3.4456,3.4483,3.4516,3.4564,3.455,3.4569,3.4568,3.4595,3.465,3.4576,3.4576,3.4587,3.4716,3.4725,3.4736,3.4643,3.4645,3.4647,3.4713,0,3.4299,3.4374,3.4379,3.4446,3.4481,3.4472,3.4508,3.453,3.4539,3.4568,3.4578,3.4611,3.4591,3.4602,3.4628,3.4638,3.4675,3.4634,3.4671,3.4673,3.4663,3.4747,3.4758,3.4819,3.4721,3.4723,3.4724,0,3.4389,3.442,3.4491,3.4517,3.4532,3.4564,3.4596,3.4625,3.4649,3.4654,3.4675,3.4671,3.4711,3.4681,3.4735,3.4707,3.4723,3.473,3.4732,3.4733,3.47,3.4749,3.4839,3.4847,3.4738,3.4737,3.4736,0,3.4441,3.45,3.455,3.4564,3.4596,3.4619,3.4633,3.4656,3.4676,3.4703,3.4716,3.4747,3.4763,3.4786,3.4789,3.4768,3.4843,3.4814,3.4845,3.4845,3.4859,3.4858,3.4951,3.4874,3.4874,3.4874,3.4873,0,3.4516,3.4559,3.4573,3.4603,3.4651,3.4655,3.4701,3.4713,3.4733,3.4764,3.4758,3.4786,3.479,3.4819,3.4821,3.4864,3.4872,3.4875,3.4875,3.4874,3.4873,3.4883,3.4877,3.4876,3.4876,3.4875,3.4875,0,3.4581,3.4593,3.4646,3.4672,3.468,3.4713,3.4734,3.4762,3.4771,3.481,3.4819,3.4831,3.4865,3.4871,3.491,3.4912,3.4963,3.4959,3.4955,3.4953,3.4983,3.4979,3.5083,3.5096,3.5013,3.5014,3.5015,0,3.4627,3.466,3.4691,3.4712,3.4727,3.4761,3.4782,3.4787,3.4809,3.4839,3.4862,3.4896,3.4922,3.4976,3.4987,3.5017,3.5012,3.5047,3.5016,3.5014,3.501,3.5007,3.5009,3.5052,3.5053,3.5053,3.5054,0,3.4707,3.4711,3.4742,3.4776,3.4802,3.4828,3.4852,3.4869,3.4877,3.4902,3.4937,3.4958,3.4998,3.503,3.506,3.5072,3.5063,3.5064,3.5072,3.5071,3.5066,3.5066,3.4968,3.5061,3.506,3.506,3.5059,3.5059,3.4762,3.479,3.4816,3.4851,3.487,3.4893,3.492,3.4933,3.4963,3.4997,3.4999,3.5036,3.5058,3.5097,3.5111,3.5139,3.5127,3.514,3.5143,3.5145,3.5147,3.5064,3.5144,3.5144,3.5144,3.5144,3.5144,0,3.4839,3.4855,3.4888,3.4923,3.495,3.4943,3.4969,3.4991,3.5025,3.5047,3.5074,3.5113,3.5144,3.5159,3.5188,3.5208,3.5205,3.5215,3.5213,3.5215,3.5156,3.5145,3.5217,3.5217,3.5217,3.5217,3.5217,3.5217,3.4882,3.4929,3.4936,3.4992,3.5007,3.5045,3.5061,3.5081,3.5099,3.5143,3.517,3.518,3.5198,3.5229,3.5256,3.526,3.527,3.5282,3.5283,3.5227,3.5219,3.5212,3.5201,3.5284,3.5285,3.5339,3.5339,3.534]},{"header":{"parameterUnit":"m.s-1","parameterCategory":1,"la1":30.2991,"la2":30.254,"lo1":-89.0895,"lo2":-89.0444,"dy":0.0017,"dx":0.0017,"nx":28,"ny":28,"refTime":"2023-07-28T09:00:00:Z","depth":0,"parameterNumber":3,"parameterNumberName":"V-component_of_WINDS"},"data":[0,0,0,0,0,0,0,0,0,0,0,0,0,0,0,0,0,0,0,0,0,0,0,0,0,0,0,0,0,0,0,0,0,0,0,0,0,0,0,0,0,0,0,0,0,0,0,0,0,0,0,0,0,0,0,0,0,0,3.4721,3.4722,0,3.4877,3.4879,3.4881,3.4863,3.486,3.4858,3.4855,3.5008,3.5014,3.5021,0,0,0,0,0,0,0,0,0,0,0,0,0,3.4396,3.4402,3.472,3.4722,3.4724,3.4877,3.4879,3.4881,3.4863,3.486,3.4857,3.4854,3.5006,3.5014,3.5021,0,0,0,0,0,0,0,0,0,0,0,0,0,3.4543,3.4404,3.472,3.4734,3.4737,3.4877,3.4879,3.4882,3.4864,3.486,3.4856,3.4853,3.5004,3.5013,3.5022,3.5156,0,0,3.5052,3.5056,0,0,0,0,0,0,0,0,3.4535,3.4555,3.473,3.4733,3.4736,3.4847,3.4821,3.4974,3.4865,3.4815,3.4855,3.4851,3.4957,3.497,3.5008,3.5164,3.517,3.5053,3.5058,3.5062,3.5065,0,0,0,0,0,0,0,3.4525,3.4548,3.4782,3.4732,3.4736,3.4729,3.4746,3.485,3.4905,3.4819,3.4818,3.4837,3.4958,3.4998,3.5011,3.5172,3.5052,3.5061,3.5067,3.507,3.5443,3.5447,0,0,0,0,0,0,3.4512,3.454,3.4777,3.4787,3.4625,3.4738,3.4757,3.4815,3.4904,3.4914,3.484,3.4836,3.4984,3.5,3.5016,3.5178,3.5062,3.5071,3.5077,3.5439,3.5444,3.5449,0,0,0,0,0,0,3.4505,3.4534,3.4771,3.4663,3.4693,3.4748,3.4813,3.482,3.486,3.492,3.4929,3.4872,3.4981,3.5003,3.5122,3.5183,3.5076,3.5084,3.5434,3.5441,3.5447,3.5504,0,0,0,0,0,0,3.4496,3.4531,3.4585,3.4665,3.4699,3.4877,3.4817,3.4826,3.4878,3.4874,3.4952,3.4961,3.498,3.5108,3.5131,3.5195,3.5092,3.5429,3.5437,3.5445,3.5497,3.5511,3.5524,0,0,0,0,0,3.4485,3.4594,3.4588,3.4617,3.4768,3.488,3.49,3.4921,3.4883,3.4936,3.4974,3.4959,3.5172,3.512,3.5146,3.5214,3.5425,3.5435,3.5444,3.5491,3.5509,3.5524,0,0,0,0,0,0,3.4518,3.4605,3.4599,3.4738,3.4802,3.4877,3.4945,3.494,3.5014,3.5007,3.5028,3.5045,3.5165,3.5201,3.5141,3.5347,3.5293,3.5308,3.532,3.5337,3.535,3.534,3.51,0,0,0,0,0,3.4542,3.4629,3.4699,3.4814,3.4847,3.4891,3.494,3.4951,3.5018,3.5044,3.5091,3.5153,3.5234,3.5287,3.5365,3.5501,3.5517,3.556,3.5573,3.5584,3.5597,3.567,3.569,3.5479,3.5479,3.5479,0,0,3.4592,3.465,3.4703,3.4822,3.4874,3.4961,3.4914,3.5008,3.5072,3.5058,3.5174,3.5209,3.528,3.5408,3.5467,3.5441,3.5658,3.5596,3.5604,3.5612,3.5682,3.5702,3.5719,3.5486,3.5485,3.5484,0,0,3.4727,3.478,3.4882,3.4934,3.5013,3.5041,3.5065,3.5141,3.5165,3.5282,3.5273,3.5347,3.5486,3.5537,3.5581,3.5733,3.5721,3.5757,3.5828,3.5899,3.5915,3.593,3.5984,3.6003,3.5769,3.577,3.577,0,3.4779,3.4913,3.4934,3.5031,3.5082,3.5075,3.5176,3.5224,3.5323,3.5358,3.5328,3.5503,3.555,3.5689,3.5726,3.5762,3.5788,3.5749,3.5912,3.5927,3.5941,3.5992,3.6012,3.5773,3.5773,3.5773,3.5772,0,3.4971,3.5063,3.5135,3.5234,3.5293,3.5391,3.5425,3.5482,3.5486,3.5516,3.5634,3.569,3.5779,3.5812,3.5817,3.5951,3.5933,3.5907,3.5854,3.5964,3.6013,3.6033,3.5779,3.5778,3.5776,3.5776,0,0,3.5135,3.5243,3.5269,3.5313,3.5397,3.5468,3.5563,3.5652,3.57,3.5767,3.5847,3.5964,3.5941,3.599,3.6,3.6062,3.6177,3.6029,3.6031,3.6055,3.6327,3.6347,3.6369,3.617,3.6173,3.6176,3.6321,0,3.5279,3.5452,3.5473,3.5626,3.571,3.5703,3.5786,3.5845,3.5875,3.5948,3.5979,3.6062,3.6025,3.6055,3.6116,3.6151,3.6233,3.614,3.6242,3.6245,3.6226,3.6395,3.6416,3.655,3.634,3.6344,3.6346,0,3.5471,3.5546,3.5708,3.5779,3.5815,3.589,3.5972,3.6043,3.6108,3.6125,3.618,3.6182,3.6277,3.6219,3.635,3.6287,3.6329,3.6352,3.6357,3.6368,3.6303,3.6411,3.6594,3.6614,3.6376,3.6374,3.6371,0,3.5574,3.5714,3.5829,3.5867,3.5953,3.6006,3.6044,3.6106,3.6157,3.6227,3.626,3.6339,3.6383,3.6443,3.6464,3.642,3.6594,3.6538,3.6609,3.6608,3.6647,3.6645,3.684,3.6673,3.6672,3.6672,3.6672,0,3.5733,3.5832,3.5877,3.5948,3.6057,3.6079,3.6186,3.6221,3.6275,3.635,3.6347,3.6417,3.6441,3.6514,3.653,3.6635,3.6655,3.6669,3.6673,3.6671,3.6669,3.6699,3.6691,3.6677,3.6676,3.6675,3.6674,0,3.5868,3.5902,3.6027,3.6098,3.6118,3.6196,3.6256,3.6322,3.6349,3.6444,3.6468,3.651,3.6596,3.6623,3.6725,3.6736,3.6859,3.6853,3.6838,3.6839,3.6908,3.6901,3.7131,3.7162,3.6974,3.6975,3.6977,0,3.5968,3.6045,3.6124,3.6176,3.6216,3.6298,3.6351,3.6373,3.6428,3.6507,3.6563,3.6648,3.6718,3.6854,3.6892,3.6969,3.6966,3.7041,3.6978,3.6973,3.6968,3.6963,3.697,3.7053,3.7055,3.7057,3.7058,0,3.6142,3.6155,3.6232,3.6316,3.6379,3.6445,3.6508,3.6549,3.658,3.664,3.6729,3.6783,3.6888,3.6971,3.705,3.7085,3.7077,3.7078,3.7098,3.7097,3.7085,3.7093,3.6871,3.7073,3.7071,3.707,3.7069,3.7069,3.6263,3.633,3.6397,3.6482,3.6532,3.6591,3.6657,3.6693,3.6768,3.6858,3.6864,3.696,3.702,3.7125,3.7164,3.7237,3.7215,3.7245,3.7252,3.726,3.7266,3.7073,3.7251,3.725,3.725,3.725,3.7249,0,3.6437,3.6479,3.6558,3.6647,3.6714,3.6701,3.677,3.6826,3.691,3.6968,3.7037,3.7137,3.7218,3.7262,3.7341,3.7391,3.7389,3.7411,3.7408,3.7416,3.728,3.7255,3.7411,3.7411,3.7411,3.7411,3.7411,3.7411,3.6536,3.6649,3.6668,3.6805,3.6845,3.6941,3.6981,3.7033,3.708,3.7193,3.7261,3.729,3.7341,3.7424,3.7496,3.7507,3.7536,3.7561,3.7569,3.7442,3.7426,3.741,3.7386,3.7567,3.7567,3.7699,3.77,3.7701]}]]